Location: Newark
(51.3318°N, 0.0053°E)
Time: 05:38:23
(UTC+00:00)

BlueWalker 3 - Pass Details

Date: 28 November 2022
Orbit: 499 x 517 km, 53.2° (Epoch: 28 January)

Event Time Altitude Azimuth Distance (km) Brightness Sun altitude
Rises 17:04:18 0° 235° (SW) 2,627 7.4 -10.0°
Reaches altitude 10° 17:06:32 10° 231° (SW) 1,739 6.0 -10.4°
Maximum altitude 17:10:23 57° 153° (SSE) 611 2.3 -10.9°
Enters shadow 17:13:16 17° 78° (ENE) 1,357 3.5 -11.4°
